Tracking 35237 objects as of 6-Sep-2026
HD Live streaming from Space Station
objects crossing your sky now

SL-6 PLAT


SL-6 PLAT is no longer on orbit


NORAD ID: 8743
Int'l Code: 1976-021C
Launch date: March 11, 1976
Source: Commonwealth of Independent States (former USSR) (CIS)
Launch site: PLESETSK MISSILE AND SPACE COMPLEX (PKMTR)
Decay date: 1976-04-05
Your satellite tracking list
Your tracking list is empty




NASA's NSSDC Master Catalog

Two Line Element Set (TLE):
1 08743U 76021  C 76096.05100774  .05779158 +00000-0 +00000-0 0  9992
2 08743 062.8358 321.7940 0040257 127.3186 233.1608 16.34335048003865
Source of the keplerian elements: AFSPC